Find Starlink 31083

NORAD ID: 58670 Int'l Des: 2023-211 Owner: SPXS Country: US Constellation: starlink operational
LEOCIRCULAR

リアルタイム位置

3D地球を読み込み中...

Starlink 31083について

説明を読み込み中...

次回通過

Passes for default location (London). Set your location on the main map for personalized predictions.

高度履歴

Loading altitude history...

軌道要素

1 58670U 23211D 26132.86608716 .00000751 00000-0 36792-4 0 9995
2 58670 43.0024 82.4957 0001043 270.8474 89.2259 15.27579432132282
Epoch: May 12, 2026 • Age: 5 hours

現在のステータス

高度 486.9 km
速度 7.63 km/s
衛星直下点 42.92°N, 94.89°W
打ち上げ日 Dec 29, 2023
運用期間 2.3 years
タイプ internet

技術仕様

分類 Payload
質量 730.00 kg
乾燥質量 700.00 kg
総質量 730.00 kg
長さ 0.30 m
直径 4.10 m
スパン 29.00 m
形状 Box + pan
製造者 SPXS
バスタイプ Starlink V2M
フェーズステータス In Orbit
所有者/国 SPXS/US

Most Searched